Voltar ao catálogo

CZ-6A DEB

AtivoSSO
NORAD 54330·DEBRIS·🇨🇳 China

Lançado Nov 11, 2022 de Taiyuan Satellite Launch Center

Loading…

Próximas Passagens (próximas 24 horas)

TLE

AtualizadoSource: Space-Track

Época: Sep 14, 2026, 12:16 UTC

1 54330U 22151BZ  26257.51177698  .00001900  00000-0  75081-3 0  9996
2 54330  98.7556 281.9582 0053629  66.6810 294.0002 14.29395680198983

Acompanhe CZ-6A DEB em tempo real com AllMySat

Download on the App Store